When you browse on this site, cookies collect data to enhance your experience and personalize the content and advertising you see.
Visit our Privacy Policy to learn more. By continuing to use the site, you agree to this use of cookies and data.
  • Em Portugal
  • Lista de países
  • Para 7 dias
  • Temperatura da água
  • Mapas de satélite
  • Mapa do tempo
  • Widgets de tempo
  • user-avatar
    Iniciar Sessão

    Previsão horária em Kabwe

    Hoje, 25 Março, Segunda-feira

    Tempo Temperatura Precipitação Vento Pressão Humidade
    00:00 +20°C° 0 mm 1 m/s 661 mmHg 90%
    01:00 +20°C° 0 mm 1 m/s 661 mmHg 92%
    02:00 +19°C° 0 mm 1 m/s 661 mmHg 93%
    03:00 +19°C° 0 mm 1 m/s 661 mmHg 95%
    04:00 +19°C° 0 mm 1 m/s 661 mmHg 96%
    05:00 +18°C° 0 mm 1 m/s 661 mmHg 97%
    06:00 +19°C° 0 mm 2 m/s 661 mmHg 93%
    07:00 +20°C° 0 mm 2 m/s 662 mmHg 90%
    08:00 +21°C° 0 mm 2 m/s 662 mmHg 85%
    09:00 +24°C° 0 mm 2 m/s 663 mmHg 78%
    10:00 +25°C° 0 mm 2 m/s 663 mmHg 70%
    11:00 +27°C° 0 mm 2 m/s 663 mmHg 63%
    12:00 +28°C° 0 mm 2 m/s 662 mmHg 59%
    13:00 +29°C° 0 mm 2 m/s 662 mmHg 56%
    14:00 +29°C° 0 mm 2 m/s 662 mmHg 55%
    15:00 +29°C° 0 mm 1 m/s 662 mmHg 58%
    16:00 +29°C° 0 mm 1 m/s 661 mmHg 61%
    17:00 +28°C° 0 mm 1 m/s 661 mmHg 64%
    18:00 +26°C° 0 mm 1 m/s 661 mmHg 68%
    19:00 +25°C° 0 mm 1 m/s 661 mmHg 72%
    20:00 +23°C° 0 mm 1 m/s 661 mmHg 77%
    21:00 +22°C° 0 mm 1 m/s 661 mmHg 77%
    22:00 +22°C° 0 mm 1 m/s 661 mmHg 78%
    23:00 +21°C° 0 mm 1 m/s 661 mmHg 79%

    Amanhã, 26 Março, Terça-feira

    Tempo Temperatura Precipitação Vento Pressão Humidade
    00:00 +21°C° 0 mm 1 m/s 661 mmHg 81%
    01:00 +21°C° 0 mm 1 m/s 661 mmHg 83%
    02:00 +20°C° 0 mm 1 m/s 661 mmHg 85%
    03:00 +20°C° 0 mm 1 m/s 661 mmHg 87%
    04:00 +20°C° 0 mm 1 m/s 661 mmHg 89%
    05:00 +19°C° 0 mm 1 m/s 660 mmHg 91%
    06:00 +21°C° 0 mm 1 m/s 661 mmHg 87%
    07:00 +22°C° 0 mm 1 m/s 662 mmHg 82%
    08:00 +23°C° 0 mm 1 m/s 662 mmHg 78%
    09:00 +25°C° 0 mm 1 m/s 663 mmHg 71%
    10:00 +27°C° 0 mm 2 m/s 663 mmHg 64%
    11:00 +29°C° 0 mm 2 m/s 664 mmHg 58%
    12:00 +30°C° 0.1 mm 2 m/s 663 mmHg 55%
    13:00 +30°C° 0.1 mm 2 m/s 663 mmHg 52%
    14:00 +31°C° 0.1 mm 2 m/s 662 mmHg 48%
    15:00 +30°C° 0 mm 2 m/s 662 mmHg 53%
    16:00 +30°C° 0 mm 1 m/s 661 mmHg 57%
    17:00 +30°C° 0 mm 1 m/s 661 mmHg 61%
    18:00 +28°C° 0 mm 1 m/s 661 mmHg 65%
    19:00 +26°C° 0 mm 1 m/s 661 mmHg 68%
    20:00 +24°C° 0 mm 1 m/s 661 mmHg 72%
    21:00 +23°C° 0 mm 1 m/s 662 mmHg 73%
    22:00 +22°C° 0 mm 1 m/s 662 mmHg 75%
    23:00 +21°C° 0 mm 2 m/s 662 mmHg 77%

    Depois de amanhã, 27 Março, Quarta-feira

    Tempo Temperatura Precipitação Vento Pressão Humidade
    00:00 +20°C° 0 mm 2 m/s 662 mmHg 79%
    01:00 +20°C° 0 mm 2 m/s 662 mmHg 82%
    02:00 +19°C° 0 mm 2 m/s 662 mmHg 85%
    03:00 +19°C° 0 mm 2 m/s 662 mmHg 86%
    04:00 +19°C° 0 mm 2 m/s 662 mmHg 86%
    05:00 +19°C° 0 mm 2 m/s 662 mmHg 87%
    06:00 +20°C° 0 mm 3 m/s 663 mmHg 84%
    07:00 +20°C° 0 mm 4 m/s 664 mmHg 82%
    08:00 +21°C° 0 mm 4 m/s 665 mmHg 79%
    09:00 +23°C° 0 mm 4 m/s 665 mmHg 72%
    10:00 +26°C° 0 mm 4 m/s 665 mmHg 65%
    11:00 +27°C° 0 mm 5 m/s 666 mmHg 58%
    12:00 +28°C° 0 mm 4 m/s 665 mmHg 54%
    13:00 +29°C° 0 mm 4 m/s 664 mmHg 51%
    14:00 +29°C° 0 mm 4 m/s 664 mmHg 48%
    15:00 +29°C° 0 mm 3 m/s 663 mmHg 53%
    16:00 +28°C° 0 mm 2 m/s 663 mmHg 59%
    17:00 +28°C° 0 mm 2 m/s 663 mmHg 64%
    18:00 +26°C° 0 mm 2 m/s 663 mmHg 67%
    19:00 +24°C° 0 mm 2 m/s 663 mmHg 69%
    20:00 +21°C° 0 mm 2 m/s 663 mmHg 72%
    21:00 +20°C° 0 mm 2 m/s 664 mmHg 74%
    22:00 +20°C° 0 mm 2 m/s 664 mmHg 76%
    23:00 +19°C° 0 mm 2 m/s 664 mmHg 77%

    28 Março, Quinta-feira

    Tempo Temperatura Precipitação Vento Pressão Humidade
    00:00 +19°C° 0 mm 2 m/s 664 mmHg 81%
    01:00 +18°C° 0 mm 2 m/s 663 mmHg 85%
    02:00 +18°C° 0 mm 2 m/s 663 mmHg 89%
    03:00 +17°C° 0 mm 2 m/s 663 mmHg 91%
    04:00 +17°C° 0 mm 2 m/s 663 mmHg 93%
    05:00 +17°C° 0 mm 2 m/s 663 mmHg 95%
    06:00 +18°C° 0 mm 3 m/s 663 mmHg 91%
    07:00 +19°C° 0 mm 3 m/s 664 mmHg 88%
    08:00 +20°C° 0 mm 4 m/s 665 mmHg 85%
    09:00 +21°C° 0 mm 4 m/s 665 mmHg 81%
    10:00 +22°C° 0 mm 4 m/s 665 mmHg 78%
    11:00 +22°C° 0 mm 3 m/s 665 mmHg 74%
    12:00 +25°C° 0 mm 3 m/s 664 mmHg 68%
    13:00 +26°C° 0 mm 3 m/s 664 mmHg 62%
    14:00 +28°C° 0 mm 2 m/s 663 mmHg 56%
    15:00 +28°C° 0 mm 2 m/s 663 mmHg 59%
    16:00 +28°C° 0 mm 2 m/s 662 mmHg 62%
    17:00 +27°C° 0 mm 1 m/s 662 mmHg 65%
    18:00 +25°C° 0 mm 1 m/s 662 mmHg 69%
    19:00 +23°C° 0 mm 2 m/s 662 mmHg 73%
    20:00 +20°C° 0 mm 2 m/s 662 mmHg 78%
    21:00 +21°C° 0 mm 1 m/s 662 mmHg 80%
    22:00 +20°C° 0 mm 1 m/s 663 mmHg 82%
    23:00 +20°C° 0 mm 1 m/s 663 mmHg 84%

    29 Março, Sexta-feira

    Tempo Temperatura Precipitação Vento Pressão Humidade
    00:00 +19°C° 0 mm 1 m/s 662 mmHg 86%
    01:00 +19°C° 0 mm 1 m/s 661 mmHg 88%
    02:00 +19°C° 0 mm 1 m/s 661 mmHg 91%
    03:00 +18°C° 0 mm 1 m/s 661 mmHg 92%
    04:00 +18°C° 0 mm 1 m/s 661 mmHg 93%
    05:00 +18°C° 0 mm 1 m/s 661 mmHg 94%
    06:00 +19°C° 0 mm 1 m/s 662 mmHg 89%
    07:00 +21°C° 0 mm 1 m/s 663 mmHg 84%
    08:00 +22°C° 0 mm 1 m/s 664 mmHg 79%
    09:00 +24°C° 0 mm 1 m/s 664 mmHg 70%
    10:00 +26°C° 0 mm 2 m/s 664 mmHg 62%
    11:00 +28°C° 0 mm 2 m/s 664 mmHg 53%
    12:00 +29°C° 0 mm 2 m/s 663 mmHg 50%
    13:00 +30°C° 0 mm 2 m/s 663 mmHg 47%
    14:00 +31°C° 0 mm 2 m/s 662 mmHg 44%
    15:00 +30°C° 0 mm 1 m/s 662 mmHg 48%
    16:00 +30°C° 0 mm 1 m/s 661 mmHg 52%
    17:00 +29°C° 0 mm 1 m/s 661 mmHg 56%
    18:00 +27°C° 0 mm 1 m/s 661 mmHg 59%
    19:00 +25°C° 0 mm 1 m/s 661 mmHg 61%
    20:00 +23°C° 0 mm 1 m/s 661 mmHg 64%
    21:00 +22°C° 0 mm 1 m/s 661 mmHg 67%
    22:00 +21°C° 0 mm 1 m/s 661 mmHg 69%
    23:00 +21°C° 0 mm 1 m/s 661 mmHg 72%

    30 Março, Sábado

    Tempo Temperatura Precipitação Vento Pressão Humidade
    00:00 +20°C° 0 mm 1 m/s 661 mmHg 74%
    01:00 +20°C° 0 mm 1 m/s 661 mmHg 76%
    02:00 +19°C° 0 mm 1 m/s 661 mmHg 78%
    03:00 +18°C° 0 mm 2 m/s 661 mmHg 80%
    04:00 +18°C° 0 mm 2 m/s 661 mmHg 82%
    05:00 +17°C° 0 mm 2 m/s 661 mmHg 84%
    06:00 +18°C° 0 mm 2 m/s 662 mmHg 81%
    07:00 +20°C° 0 mm 3 m/s 663 mmHg 78%
    08:00 +21°C° 0 mm 3 m/s 663 mmHg 75%
    09:00 +24°C° 0 mm 3 m/s 664 mmHg 69%
    10:00 +25°C° 0 mm 3 m/s 664 mmHg 62%
    11:00 +27°C° 0 mm 3 m/s 664 mmHg 56%
    12:00 +28°C° 0 mm 3 m/s 663 mmHg 53%
    13:00 +29°C° 0 mm 3 m/s 663 mmHg 49%
    14:00 +30°C° 0 mm 2 m/s 662 mmHg 45%
    15:00 +29°C° 0 mm 2 m/s 662 mmHg 49%
    16:00 +29°C° 0 mm 2 m/s 662 mmHg 52%
    17:00 +28°C° 0 mm 1 m/s 661 mmHg 55%
    18:00 +26°C° 0 mm 1 m/s 661 mmHg 57%
    19:00 +23°C° 0 mm 2 m/s 661 mmHg 59%
    20:00 +20°C° 0 mm 2 m/s 661 mmHg 60%
    21:00 +20°C° 0 mm 2 m/s 661 mmHg 61%
    22:00 +20°C° 0 mm 1 m/s 661 mmHg 61%
    23:00 +19°C° 0 mm 1 m/s 661 mmHg 62%
    Mostrar mais